Вернуться в каталог

WESTFORD NEEDLES

LostPO
NORAD 18543·DEBRIS·🇺🇸 United States

Запущен May 9, 1963 с Vandenberg Space Force Base

Loading…

Ближайшие Пролёты (ближайшие 24 часа)

TLE

УстаревшееSource: Space-Track

Эпоха: May 22, 2025, 02:05 UTC

1 18543U 63014DJ  25142.08711664 -.00000675  00000-0 -28283+0 0  9994
2 18543  87.5212 183.2042 0452825 222.1899 134.3262  8.66512731 86001

Отслеживайте WESTFORD NEEDLES в реальном времени с AllMySat

Download on the App Store